Location: Newark
(16.3678°N, 77.8722°E)
Time: 08:34:10
(UTC+00:00)

Tiros 1 - Pass Details

Date: 13 December 2019
Orbit: 630 x 664 km, 48.4° (Epoch: 24 January)

Event Time Altitude Azimuth Distance (km) Brightness Sun altitude
Rises 09:00:51 0° 289° (WNW) 2,905 10.7 38.0°
Reaches altitude 10° 09:04:15 10° 263° (W) 1,997 10.4 37.5°
Maximum altitude 09:06:31 14° 233° (SW) 1,771 10.8 37.1°
Drops below altitude 10° 09:08:48 10° 203° (SSW) 1,999 10.8 36.7°
Sets 09:12:13 0° 177° (S) 2,909 11.0 36.2°
